Location: Dover
(39.1580°N, 75.5250°W)
Time: 04:10:57
(UTC-05:00)

Daily predictions for brighter satellites

Satellite Brightness Start Highest point End
(mag) Time Altitude Azimuth Time Altitude Azimuth Time Altitude Azimuth
CZ-4C R/B 4.2 03:49:59 22° ENE 03:49:59 22° ENE 03:52:11 10° NE
Cosmos 1980 Rocket 4.0 04:00:37 24° SE 04:00:37 24° SE 04:02:51 10° SE
USA 267 4.0 03:54:00 10° NE 03:58:27 47° NE 03:58:27 47° NE
SeaSat 1 3.2 04:27:45 10° NNE 04:31:33 47° ENE 04:31:33 47° ENE
USA 234 4.2 04:28:35 10° E 04:34:32 39° NNE 04:36:22 32° N
Meteor 2-4 Rocket 3.9 04:37:26 62° SSE 04:37:26 62° SSE 04:42:07 10° SSE
SL-16 R/B 3.1 04:38:28 34° NNE 04:40:21 45° ENE 04:45:46 10° SE
Cosmos 2322 Rocket 3.0 04:42:20 33° N 04:44:25 48° ENE 04:49:54 10° SE
COSMO-SKYMED 1 3.3 04:56:51 10° SSE 05:01:03 52° ENE 05:02:48 31° NNE
Timation 2 Rocket 4.2 05:00:30 54° W 05:01:18 57° WNW 05:08:04 10° NNE
Cosmos 1092 Rocket 4.0 04:56:38 10° S 05:02:43 76° E 05:08:52 10° N
EO 1 Del DPAF 4.2 05:01:17 10° SE 05:04:55 44° ENE 05:06:03 34° NNE
NOAA 6 4.2 05:00:19 10° NNE 05:05:28 71° ESE 05:10:35 10° S
Cosmos 773 Rocket 4.0 05:09:06 58° NW 05:09:06 58° NW 05:13:38 10° NNE
Meteor 1-5 Rocket 4.0 05:05:39 10° SSW 05:11:01 63° W 05:16:19 10° N
Feng Yun 1-1 Rocket 4.3 05:06:13 10° NNE 05:12:01 81° ESE 05:17:38 10° SSW
Cosmos 1500 3.4 05:10:51 10° S 05:14:40 68° E 05:18:30 10° NNE
Okean 1 Rocket 2.9 05:11:05 10° S 05:15:28 85° W 05:19:55 10° N
ATLAS CENTAUR R/B 3.9 05:13:06 10° SSE 05:15:49 19° ESE 05:18:31 10° ENE
Landsat 4 3.9 05:14:13 10° S 05:17:20 58° SSW 05:17:20 58° SSW
Okean-O 2.5 05:16:40 10° NNE 05:21:07 88° WNW 05:25:33 10° SSW
CZ-2C R/B 4.1 05:20:35 10° S 05:24:12 42° WSW 05:24:12 42° WSW
Cosmos 1680 Rocket 3.7 05:19:40 10° S 05:24:50 73° ESE 05:30:03 10° NNE
SKYMED 3 4.4 05:26:46 10° S 05:31:05 70° WSW 05:33:13 29° NNW
CZ-4C R/B 2.9 05:35:12 31° NW 05:35:29 31° NW 05:40:45 10° NNE
Cosmos 2360 Rocket 2.8 05:33:53 10° NNW 05:39:29 56° ENE 05:45:01 10° SE
IDEFIX/ARIANE 42P 2.4 05:34:50 10° N 05:40:03 74° WNW 05:45:16 10° SSW
Cosmos 1980 Rocket 3.9 05:42:27 16° WSW 05:42:27 16° WSW 05:44:22 10° SW
USA 267 3.9 05:37:25 10° NNE 05:43:08 34° NNW 05:45:49 25° WNW
Cosmos 1066 Rocket 4.2 05:39:35 10° N 05:44:59 78° E 05:50:26 10° SSE
GPS 2-05 Rocket1 4.3 05:43:19 18° SW 05:45:11 31° SSE 05:48:14 10° ESE
Cosmos 1666 3.8 05:43:05 10° SSE 05:46:44 45° E 05:50:23 10° NNE
Cosmos 2219 Rocket 4.4 05:43:10 10° N 05:47:12 20° NE 05:51:13 10° E
SKYMED 2 3.9 05:45:00 10° S 05:49:07 43° W 05:51:24 23° NW
Cosmos 1515 4.4 05:53:10 30° W 05:53:31 31° W 05:56:55 10° SSW
Thor Agena Rocket 4.0 05:51:07 10° SSE 05:56:04 63° ENE 06:01:07 10° N
Cosmos 923 Rocket 4.3 05:52:29 10° SW 05:57:26 42° WNW 06:02:24 10° N
APEX 3.6 05:57:24 18° WSW 05:59:38 38° WNW 06:03:37 10° N
CZ-4 R/B 3.3 06:01:41 10° NNE 06:05:35 36° E 06:09:28 10° SSE
ATLAS 5 CENTAUR R/B 4.2 06:02:34 10° N 06:07:17 24° NE 06:12:21 10° E
SeaSat 1 3.7 06:06:15 10° N 06:09:44 20° NW 06:11:24 17° WNW
Cosmos 1184 Rocket 3.6 06:08:14 20° NW 06:09:50 31° W 06:12:49 10° SSW
Cosmos 1455 Rocket 3.2 06:05:24 10° S 06:09:51 82° E 06:14:20 10° N
Lacrosse 5 3.3 06:06:50 10° SSW 06:11:34 41° SE 06:16:18 10° ENE
CZ-2C R/B 2.5 06:08:05 10° N 06:12:39 45° WNW 06:17:04 10° SW
Cosmos 2112 Rocket 4.2 06:08:40 10° SW 06:13:38 46° WNW 06:18:39 10° N
Cosmos 1544 Rocket 3.5 06:09:57 10° S 06:14:25 81° W 06:18:52 10° N
BREEZE-M DEB (TANK) 4.0 05:58:13 10° SW 06:15:04 84° SSE 06:19:10 10° ENE
Cosmos 1025 Rocket 4.1 06:13:21 14° NW 06:15:55 24° W 06:19:22 10° SW
USA 234 3.3 06:10:43 10° SE 06:17:15 69° SW 06:23:43 10° NW
Cosmos 2219 4.3 06:12:59 10° S 06:18:26 50° ESE 06:23:51 10° NNE
Cosmos 1975 3.4 06:15:48 10° SW 06:19:25 34° WNW 06:23:05 10° NNW
Cosmos 2285 Rocket 4.3 06:15:33 10° SW 06:21:27 41° WNW 06:27:23 10° N
Cosmos 2056 Rocket 3.7 06:16:36 10° NNW 06:21:44 75° ENE 06:26:53 10° SSE
SL-16 R/B 3.3 06:20:23 13° NW 06:24:07 24° WSW 06:28:31 10° SSW
Cosmos 2322 Rocket 3.4 06:24:11 12° NW 06:28:05 23° W 06:32:24 10° SSW
CSL-04 Rocket 3.8 06:22:52 10° NNE 06:28:27 90° NNE 06:33:58 10° SSW
SMAP 3.0 06:31:13 10° N 06:35:53 78° WNW 06:40:31 10° SSW
Cosmos 1743 3.4 06:33:44 10° SW 06:37:09 31° WNW 06:40:36 10° NNW
COSMO-SKYMED 1 4.4 06:35:36 10° WSW 06:37:30 13° W 06:39:25 10° WNW
IRAS Rocket 4.3 06:32:57 10° NNE 06:38:33 87° WNW 06:44:07 10° SSW
S3M 4.1 06:33:08 10° NNW 06:39:14 60° W 06:45:22 10° S
Ariane Rocket 3.0 06:35:35 10° N 06:40:39 78° WNW 06:45:43 10° SSW
Cosmos 2237 4.3 06:39:16 10° NNW 06:44:54 63° WSW 06:50:29 10° S
Cosmos 1842 3.2 06:42:45 10° N 06:46:44 78° W 06:50:40 10° S
Aureole 1 Rocket 2.3 06:44:21 10° SSW 06:47:21 56° WNW 06:50:50 10° NNE
Cosmos 1484 Rocket 3.2 06:43:47 10° N 06:47:23 38° WNW 06:50:54 10° SW
ALOS 3.7 06:46:53 10° NNE 06:51:21 43° E 06:55:48 10° S
